Location: Beneden-Haastrecht
(52.0012°N, 4.7557°E)
Time: 22:12:24
(UTC+00:00)

Envisat - Visible Passes

Search period start: 22 January 2021 00:00
Search period end: 01 February 2021 00:00
Orbit: 764 x 766 km, 98.1° (Epoch: 22 January)

Date Brightness Start Highest point End Pass type
(mag) Time Alt. Az. Time Alt. Az. Time Alt. Az.
22 Jan 4.8 04:46:20 10° NNE 04:50:51 31° E 04:55:19 10° SSE visible
22 Jan 3.3 06:25:11 10° N 06:30:02 46° WNW 06:34:52 10° SW visible
22 Jan 5.8 17:46:59 10° SW 17:50:44 21° W 17:54:31 10° NW visible
23 Jan 5.8 04:10:28 10° NE 04:13:36 16° E 04:16:43 10° SE visible
23 Jan 2.9 05:48:12 10° NNE 05:53:20 87° WNW 05:58:25 10° SSW visible
23 Jan 4.6 17:08:49 10° SSW 17:13:33 39° W 17:18:20 10° NNW visible
24 Jan 4.0 05:11:28 10° NNE 05:16:26 49° E 05:21:20 10° S visible
24 Jan 3.8 06:50:52 10° N 06:55:16 30° WNW 06:59:39 10° WSW visible
24 Jan 6.2 18:14:18 10° WSW 18:16:31 13° W 18:18:44 10° WNW visible
25 Jan 5.2 04:35:07 10° NE 04:39:20 25° E 04:43:30 10° SSE visible
25 Jan 3.1 06:13:42 10° N 06:18:41 55° WNW 06:23:38 10° SW visible
25 Jan 5.5 17:35:03 10° SSW 17:39:12 25° W 17:43:22 10° NW visible
26 Jan 6.1 03:59:40 10° ENE 04:02:01 13° E 04:04:22 10° ESE visible
26 Jan 3.1 05:36:47 10° NNE 05:41:55 78° ESE 05:47:00 10° S visible
26 Jan 4.2 16:57:11 10° S 17:02:05 48° W 17:07:01 10° NNW visible
27 Jan 4.4 05:00:09 10° NNE 05:04:57 40° E 05:09:43 10° SSE visible
27 Jan 3.5 06:39:19 10° N 06:43:56 36° WNW 06:48:33 10° SW visible
27 Jan 6.0 18:01:54 10° WSW 18:04:56 16° W 18:07:58 10° NW visible
28 Jan 5.5 04:23:57 10° NE 04:27:47 21° E 04:31:36 10° SE visible
28 Jan 2.9 06:02:14 10° N 06:07:18 67° WNW 06:12:20 10° SSW visible
28 Jan 5.2 17:23:14 10° SSW 17:27:40 30° W 17:32:09 10° NNW visible
29 Jan 6.3 03:49:33 10° ENE 03:50:25 10° E 03:51:16 10° E visible
29 Jan 3.4 05:25:24 10° NNE 05:30:28 64° ESE 05:35:31 10° S visible
30 Jan 4.7 04:48:51 10° NNE 04:53:27 33° E 04:58:01 10° SSE visible
30 Jan 3.3 06:27:48 10° N 06:32:37 43° WNW 06:37:23 10° SW visible
30 Jan 5.9 17:49:46 10° SW 17:53:22 19° W 17:56:58 10° NW visible
31 Jan 5.8 04:12:54 10° NE 04:16:14 17° E 04:19:33 10° SE visible
31 Jan 2.9 05:50:47 10° NNE 05:55:54 81° WNW 06:00:59 10° SSW visible
31 Jan 4.8 17:11:30 10° SSW 17:16:10 36° W 17:20:53 10° NNW visible
